Location: Kott?ru
(16.6209°N, 80.6208°E)
Time: 13:39:56
(UTC+00:00)

IRIDIUM 106 - Pass Details

Date: 18 September 2020
Orbit: 776 x 779 km, 86.4° (Epoch: 30 October)

Event Time Altitude Azimuth Distance (km) Brightness Sun altitude
Rises 22:47:54 0° 1° (N) 3,252 7.7 -24.3°
Reaches altitude 10° 22:50:15 10° 2° (N) 2,323 6.9 -23.7°
Maximum altitude 22:55:27 82° 89° (E) 787 4.3 -22.5°
Drops below altitude 10° 23:00:39 10° 177° (S) 2,317 6.7 -21.2°
Sets 23:02:59 0° 178° (S) 3,243 7.5 -20.7°
